Wind_Speed
17 17 16 16 15 14 14 13 13 13 13 12 12 12 12 12 12 12 11 11 11 12 12 12 12 12 12 12 12 12 13 13 13 13 13 13 13 14 14 14 14 14 14
19 18 17 17 17 16 16 15 15 15 14 14 14 14 14 13 13 14 14 13 13 13 13 13 13 13 13 14 14 14 15 15 15 15 15 15 15 16 16 16 16 16 16
20 20 18 18 18 17 17 17 16 16 16 16 15 15 15 15 15 15 15 15 15 15 15 15 15 15 15 15 16 16 16 16 16 17 17 17 17 17 17 17 17 17 18
21 20 20 19 19 19 19 18 18 18 18 18 17 17 17 17 17 17 17 17 17 17 17 18 18 18 18 17 18 18 18 18 18 19 19 19 19 19 19 19 19 19 19
22 21 21 20 20 20 20 20 19 19 19 19 19 19 19 19 19 19 19 19 19 19 19 20 20 20 20 20 20 20 20 20 21 21 21 21 21 21 21 21 21 21 21
23 22 22 22 21 21 21 21 21 21 21 20 20 20 20 20 20 20 20 20 20 20 21 21 21 21 22 22 22 22 22 22 22 23 23 23 23 23 24 24 24 23 24
24 23 23 23 22 22 22 22 22 21 21 21 21 21 21 21 21 21 21 22 22 22 22 22 22 22 23 23 23 24 24 24 24 24 25 25 25 25 26 26 26 25 26
25 24 24 23 23 23 23 23 22 22 21 21 21 21 22 22 22 23 23 23 23 24 24 24 24 24 24 24 24 25 25 26 26 26 26 26 27 27 27 28 27 27 27
26 25 24 24 24 23 23 23 22 22 22 22 22 22 22 22 23 23 24 24 24 24 24 25 25 25 25 25 25 26 26 27 27 28 28 28 29 29 29 29 29 29 29
26 25 25 24 24 24 23 23 23 23 23 23 23 23 23 24 24 24 25 25 25 25 25 26 26 26 26 27 27 28 28 29 29 29 30 30 30 30 30 30 31 31 31
26 26 25 25 25 25 24 24 24 24 24 24 24 24 24 25 25 25 26 26 26 27 27 27 28 28 28 29 29 29 30 30 31 31 31 31 31 32 32 32 32 33 33
27 27 26 26 26 26 26 26 26 25 25 26 26 26 26 26 26 27 27 28 28 29 29 30 30 30 30 31 31 31 32 32 33 33 33 33 33 33 33 33 34 34 35
28 28 27 27 27 27 27 27 27 27 27 27 27 27 27 27 28 28 29 29 30 30 30 31 31 31 31 32 32 32 33 34 34 35 35 35 35 36 36 36 36 37 37
29 29 28 28 28 28 28 29 28 28 29 29 29 29 29 28 29 29 29 30 30 30 31 31 31 32 32 33 33 34 35 35 36 37 37 37 38 38 39 39 39 39 39
29 29 29 29 29 29 29 29 30 30 30 30 30 30 29 29 29 30 30 31 31 31 32 32 32 33 33 34 35 36 37 37 38 38 39 39 39 40 41 41 41 42 42
29 29 30 30 30 30 30 30 30 30 30 30 30 30 30 30 30 30 30 31 32 32 33 34 34 35 35 36 36 37 39 40 40 40 40 41 41 42 42 43 43 43 44
29 29 29 29 30 29 29 29 30 30 30 30 30 30 30 30 30 31 31 32 32 33 34 35 36 37 37 38 39 40 41 41 42 42 43 43 43 44 44 45 45 46 46
29 29 29 29 29 29 29 29 29 29 30 30 30 30 31 31 32 33 33 33 34 35 36 37 38 39 40 41 42 42 43 43 44 44 45 46 46 47 46 48 48 48 49
29 29 30 30 30 30 30 30 30 30 30 31 31 32 33 33 33 34 34 35 36 37 38 40 40 42 43 44 44 45 45 46 47 47 47 47 48 49 49 50 51 51 52
30 29 30 30 31 31 31 31 31 32 32 32 33 34 34 35 35 36 37 38 39 40 41 42 43 45 45 46 46 47 47 48 49 49 49 50 50 50 51 52 53 54 54
30 30 30 30 31 31 32 32 32 33 33 34 34 35 35 36 37 38 39 40 41 42 43 44 45 46 47 48 48 48 48 50 51 51 52 52 52 53 53 54 55 56 56
31 31 31 31 31 32 32 33 33 34 34 35 36 36 37 38 39 40 41 42 43 44 45 46 47 48 48 50 50 51 51 51 52 52 53 54 55 56 56 57 58 59 60
32 32 32 32 32 32 33 33 34 34 35 36 37 38 39 40 41 43 44 44 45 46 47 48 49 50 51 52 53 55 55 55 54 54 55 56 57 58 59 60 61 62 63
33 33 33 33 33 33 33 34 34 35 36 37 38 39 41 42 43 44 45 46 47 48 49 50 51 52 53 54 56 57 57 58 58 57 56 56 58 59 59 61 62 62 62
34 34 34 34 34 34 35 35 36 37 37 38 40 41 42 43 44 45 46 47 48 50 51 51 53 54 55 56 56 57 58 58 60 60 59 57 58 60 61 61 61 61 62
35 35 35 35 35 36 36 37 37 38 39 40 41 42 43 44 45 46 47 48 50 51 52 53 55 56 56 57 57 57 58 59 60 61 61 60 60 60 60 59 59 60 60
Wind_Direction
247 248 249 249 250 250 251 252 253 254 256 257 258 260 261 262 263 266 268 271 272 272 271 272 271 271 273 276 277 278 279 280 282 282 284 285 285 284 285 287 287 285 285
249 249 249 248 249 250 251 253 255 256 258 259 260 261 262 263 265 266 267 269 270 271 272 273 274 274 275 277 277 279 279 280 280 281 283 285 285 284 284 285 286 285 284
249 249 249 249 249 251 252 253 254 256 258 260 261 261 262 263 265 266 267 268 269 270 271 274 274 276 276 278 279 279 280 280 281 281 283 285 284 283 283 284 285 285 285
249 249 248 249 250 252 254 255 255 257 259 261 262 263 263 264 265 266 267 268 268 269 270 272 275 276 277 278 279 279 279 279 280 280 282 283 283 283 283 283 283 284 284
248 248 249 250 251 253 254 256 257 258 259 261 263 263 263 264 265 267 268 270 269 270 271 272 274 276 277 278 278 279 279 279 279 279 280 281 281 281 282 282 282 282 282
248 248 249 251 253 254 255 257 258 259 260 261 262 263 263 264 266 267 269 270 271 271 272 273 274 275 276 277 277 278 279 279 279 279 279 280 280 280 280 281 281 282 282
248 248 250 251 253 255 256 257 258 259 260 262 263 263 264 266 267 268 270 271 271 272 273 274 274 275 275 276 277 277 278 279 279 279 279 278 279 279 279 279 280 281 281
247 248 250 252 253 254 255 257 258 259 260 262 264 265 266 267 268 269 270 271 272 273 274 274 275 275 276 277 277 278 278 279 279 279 279 279 278 278 278 278 278 279 279
247 248 250 251 252 253 254 256 258 259 261 263 265 266 268 269 270 271 272 272 273 274 275 275 275 276 276 277 278 279 279 280 280 280 279 279 279 278 278 278 278 279 278
247 248 249 251 252 253 254 256 258 260 261 263 266 267 269 270 271 272 273 273 274 275 276 277 277 277 278 278 279 280 281 281 281 281 280 279 278 278 277 277 278 278 278
248 249 249 251 253 254 255 257 259 260 262 264 266 268 269 270 271 273 274 274 275 276 277 277 278 279 278 279 279 280 281 281 282 282 281 279 278 278 277 278 278 278 278
248 250 251 253 254 255 256 258 260 261 263 265 267 269 270 271 272 273 274 275 276 277 277 278 279 279 279 279 279 280 281 282 282 282 281 279 278 278 278 278 278 278 278
249 250 252 254 256 257 257 258 260 262 264 266 268 269 270 271 272 274 275 276 277 278 278 278 278 279 279 279 279 280 281 282 282 282 281 280 279 279 279 279 278 278 278
250 251 253 254 256 257 258 259 260 262 265 267 268 269 270 271 273 274 275 277 277 278 278 278 279 280 280 280 280 281 281 282 282 282 281 279 279 279 278 278 278 278 277
250 251 253 255 256 258 260 261 262 264 266 267 268 269 270 271 273 273 275 276 277 278 278 279 279 280 281 281 281 281 282 283 282 282 281 280 280 279 279 278 278 277 277
251 252 254 256 258 260 261 263 264 265 266 267 268 269 270 272 273 274 275 276 277 278 279 281 280 281 282 283 283 284 284 283 283 282 281 280 280 279 279 279 279 279 278
251 253 255 256 258 260 262 263 264 265 266 267 268 268 270 271 273 274 276 277 278 279 281 282 282 282 283 284 284 284 285 285 283 282 282 282 281 280 280 280 279 279 279
252 254 255 257 258 259 261 263 265 266 267 267 268 269 270 272 274 275 277 278 279 281 282 283 284 284 285 285 285 285 286 286 285 284 284 283 282 281 281 281 280 280 280
253 254 256 258 259 260 262 264 266 267 267 268 269 270 272 273 275 276 278 279 280 282 284 285 286 286 286 286 286 286 285 285 285 285 284 284 283 281 281 281 281 280 280
254 256 258 260 261 262 263 264 266 267 268 270 271 272 273 275 276 277 279 281 282 283 285 286 286 286 287 287 286 286 286 286 285 286 285 285 284 283 282 282 281 281 281
256 258 260 261 263 264 264 265 266 267 269 271 272 273 274 275 277 278 280 282 283 284 286 287 288 288 288 288 287 286 286 287 287 287 286 285 285 285 284 284 283 282 282
257 259 261 263 264 265 266 267 268 269 270 272 273 273 275 276 278 280 281 283 284 285 287 288 289 290 290 289 288 288 287 287 287 288 287 287 286 285 285 284 284 284 283
258 259 261 264 265 266 267 269 270 270 272 273 274 275 276 278 279 281 282 283 285 286 287 288 289 290 290 290 290 290 290 290 288 288 288 288 287 286 285 286 286 285 284
258 260 262 264 266 267 268 270 271 272 274 276 276 277 278 279 280 281 282 284 285 287 288 289 289 291 291 291 292 292 292 292 292 291 290 289 289 288 287 287 287 287 286
259 261 263 265 266 268 269 270 272 274 276 277 278 279 279 280 281 282 283 285 286 287 288 289 289 291 292 293 293 293 293 293 293 293 291 290 290 289 288 287 288 288 287
259 261 263 265 267 268 270 271 273 275 277 278 279 280 280 281 282 283 284 286 287 288 289 289 291 292 293 293 294 294 294 294 294 293 293 292 291 290 289 288 288 288 287
Height
5848 5849 5851 5852 5853 5854 5855 5856 5857 5858 5858 5859 5860 5860 5860 5861 5861 5861 5861 5862 5862 5862 5863 5863 5863 5863 5863 5863 5863 5863 5862 5862 5862 5862 5861 5861 5861 5860 5860 5859 5859 5859 5858
5846 5847 5848 5850 5851 5852 5853 5854 5855 5855 5856 5857 5857 5858 5858 5859 5859 5859 5860 5860 5860 5860 5861 5861 5861 5861 5861 5861 5860 5860 5860 5860 5859 5859 5859 5859 5858 5858 5857 5857 5857 5856 5856
5843 5844 5846 5847 5848 5849 5850 5851 5852 5853 5853 5854 5855 5855 5856 5856 5857 5857 5857 5858 5858 5858 5858 5858 5858 5858 5858 5858 5858 5858 5858 5857 5857 5857 5857 5856 5856 5855 5855 5854 5854 5853 5853
5840 5841 5842 5844 5845 5846 5847 5848 5849 5850 5851 5851 5852 5853 5853 5854 5854 5854 5855 5855 5855 5855 5856 5856 5856 5856 5856 5855 5855 5855 5855 5855 5854 5854 5854 5853 5853 5852 5852 5851 5851 5850 5850
5836 5837 5839 5840 5842 5843 5844 5845 5846 5847 5848 5848 5849 5849 5850 5851 5851 5851 5852 5852 5852 5852 5852 5852 5852 5852 5852 5852 5852 5852 5851 5851 5851 5851 5850 5850 5850 5849 5848 5848 5847 5847 5846
5832 5834 5835 5837 5838 5839 5841 5842 5843 5844 5844 5845 5846 5846 5847 5847 5848 5848 5848 5848 5849 5849 5849 5849 5849 5849 5849 5849 5848 5848 5848 5847 5847 5847 5846 5846 5846 5845 5844 5844 5843 5843 5842
5828 5830 5831 5833 5834 5836 5837 5838 5839 5840 5841 5841 5842 5843 5843 5844 5844 5844 5844 5844 5845 5845 5845 5845 5845 5845 5845 5844 5844 5844 5844 5843 5843 5842 5842 5842 5841 5840 5840 5839 5839 5838 5838
5824 5826 5827 5829 5830 5832 5833 5834 5835 5836 5837 5838 5838 5839 5839 5839 5840 5840 5840 5840 5840 5841 5841 5841 5841 5840 5840 5840 5840 5839 5839 5839 5838 5838 5837 5837 5836 5836 5835 5834 5834 5833 5833
5820 5822 5823 5825 5826 5827 5829 5830 5831 5832 5833 5833 5834 5835 5835 5835 5836 5836 5836 5836 5836 5836 5836 5836 5836 5836 5835 5835 5835 5834 5834 5833 5833 5833 5832 5832 5831 5830 5829 5829 5828 5828 5827
5815 5817 5819 5821 5822 5823 5824 5826 5827 5828 5829 5829 5830 5830 5831 5831 5831 5831 5831 5831 5831 5831 5831 5831 5831 5831 5830 5830 5830 5829 5829 5828 5828 5827 5826 5826 5825 5824 5824 5823 5822 5822 5821
5811 5813 5815 5816 5817 5819 5820 5821 5822 5823 5824 5825 5825 5826 5826 5826 5826 5826 5826 5826 5826 5826 5826 5826 5826 5825 5825 5825 5824 5824 5823 5822 5822 5821 5820 5820 5819 5818 5817 5817 5816 5815 5814
5806 5808 5810 5811 5813 5814 5815 5816 5818 5819 5819 5820 5820 5821 5821 5821 5821 5821 5821 5821 5821 5821 5821 5820 5820 5820 5819 5819 5818 5818 5817 5816 5815 5815 5814 5813 5812 5811 5811 5810 5809 5808 5807
5801 5803 5805 5806 5808 5809 5810 5811 5813 5813 5814 5815 5815 5816 5816 5816 5816 5816 5816 5816 5815 5815 5815 5814 5814 5813 5813 5812 5812 5811 5810 5809 5809 5808 5807 5806 5805 5804 5803 5802 5802 5801 5800
5796 5798 5799 5801 5802 5804 5805 5806 5807 5808 5809 5809 5810 5810 5810 5810 5810 5810 5810 5810 5809 5809 5808 5808 5807 5807 5806 5805 5805 5804 5803 5802 5801 5800 5799 5798 5797 5796 5795 5794 5793 5792 5791
5790 5792 5794 5795 5797 5798 5799 5800 5801 5802 5803 5803 5803 5804 5804 5804 5804 5804 5804 5804 5803 5803 5802 5802 5801 5800 5799 5798 5797 5796 5795 5794 5793 5792 5791 5790 5788 5787 5786 5785 5784 5783 5782
5785 5786 5788 5790 5791 5792 5793 5794 5795 5796 5796 5797 5797 5797 5798 5798 5798 5798 5797 5797 5796 5796 5795 5794 5794 5793 5792 5791 5790 5788 5787 5786 5784 5783 5782 5780 5779 5778 5777 5775 5774 5773 5772
5779 5781 5782 5784 5785 5786 5787 5788 5789 5790 5790 5791 5791 5791 5791 5791 5791 5791 5791 5790 5789 5789 5788 5787 5786 5785 5784 5782 5781 5780 5778 5776 5775 5773 5772 5770 5769 5768 5766 5765 5763 5762 5761
5773 5775 5776 5778 5779 5780 5781 5782 5783 5783 5784 5784 5784 5784 5784 5784 5784 5784 5784 5783 5782 5781 5780 5779 5777 5776 5775 5773 5772 5770 5768 5766 5765 5763 5761 5760 5758 5756 5755 5753 5752 5750 5749
5767 5769 5770 5772 5773 5774 5775 5776 5776 5777 5777 5777 5778 5778 5778 5777 5777 5776 5776 5775 5774 5773 5771 5770 5768 5767 5765 5763 5761 5760 5758 5756 5754 5752 5750 5748 5746 5744 5742 5741 5739 5737 5735
5761 5763 5764 5765 5767 5768 5769 5769 5770 5770 5770 5770 5770 5770 5770 5770 5769 5769 5768 5767 5765 5764 5762 5760 5759 5756 5754 5752 5750 5749 5747 5744 5742 5740 5738 5736 5733 5731 5729 5727 5725 5723 5721
5755 5756 5758 5759 5760 5761 5762 5762 5763 5763 5763 5763 5763 5763 5762 5762 5761 5760 5759 5758 5756 5755 5753 5750 5748 5746 5743 5740 5738 5737 5736 5733 5730 5727 5725 5722 5720 5717 5715 5712 5710 5708 5706
5748 5750 5751 5752 5753 5754 5754 5755 5755 5755 5755 5755 5755 5754 5754 5753 5752 5751 5750 5748 5747 5745 5743 5740 5737 5735 5732 5728 5725 5723 5722 5722 5719 5715 5711 5708 5706 5703 5700 5697 5694 5691 5689
5741 5743 5744 5744 5745 5746 5747 5747 5747 5747 5747 5747 5746 5746 5745 5744 5743 5742 5740 5739 5737 5734 5732 5729 5726 5723 5720 5717 5712 5708 5706 5705 5704 5703 5698 5694 5690 5687 5684 5680 5677 5674 5671
5734 5735 5736 5737 5738 5739 5739 5739 5739 5739 5739 5738 5738 5737 5735 5734 5733 5731 5730 5728 5726 5724 5721 5718 5715 5711 5707 5704 5701 5696 5691 5688 5685 5685 5685 5680 5675 5671 5667 5663 5660 5656 5652
5726 5727 5728 5729 5730 5731 5731 5731 5731 5731 5731 5730 5728 5727 5726 5724 5722 5721 5719 5717 5715 5713 5710 5706 5703 5699 5695 5691 5687 5683 5678 5674 5670 5666 5666 5665 5660 5655 5650 5646 5642 5638 5633
5718 5719 5720 5721 5722 5723 5723 5723 5723 5722 5722 5720 5719 5717 5716 5714 5712 5711 5708 5706 5703 5700 5697 5694 5690 5686 5682 5677 5673 5668 5664 5660 5656 5650 5647 5646 5644 5640 5634 5629 5624 5620 5616